This is the latest recevied weather packets stored in our database for station/object KB1WCR. If no packets are shown the sender has not sent any weather packets the latest 10 day(s).
| Time | Temp. | Humidity | Pressure | Rain* | Wind** | Luminosity | Snow |
|---|---|---|---|---|---|---|---|
| 1777638976 | 8.89° C | 81% | 1008 hPa | 0 mm | - | 407 W/m² | - |
| 1777638671 | 8.33° C | 84% | 1007.9 hPa | 0 mm | - | 394 W/m² | - |
| 1777638369 | 8.89° C | 85% | 1007.8 hPa | 0 mm | - | 381 W/m² | - |
| 1777638064 | 8.33° C | 85% | 1007.9 hPa | 0 mm | - | 367 W/m² | - |
| 1777637760 | 8.33° C | 84% | 1008.1 hPa | 0 mm | - | 353 W/m² | - |
| 1777637457 | 8.33° C | 88% | 1007.9 hPa | 0 mm | - | 341 W/m² | - |
| 1777636846 | 8.33° C | 90% | 1007.9 hPa | 0 mm | - | 311 W/m² | - |
| 1777635938 | 7.78° C | 95% | 1007.9 hPa | 0 mm | - | 263 W/m² | - |
| 1777635634 | 7.78° C | 94% | 1007.8 hPa | 0 mm | - | 247 W/m² | - |
| 1777635331 | 7.78° C | 96% | 1007.9 hPa | 0 mm | - | 231 W/m² | - |
| 1777635027 | 7.78° C | 99% | 1007.9 hPa | 0 mm | - | 217 W/m² | - |
| 1777634723 | 7.22° C | 99% | 1007.8 hPa | 0 mm | - | 202 W/m² | - |
| 1777634421 | 8.33° C | 99% | 1007.9 hPa | 0 mm | - | 188 W/m² | - |
| 1777634118 | 8.33° C | 99% | 1007.6 hPa | 0 mm | - | 171 W/m² | - |
| 1777633814 | 7.22° C | 99% | 1008 hPa | 0 mm | - | 158 W/m² | - |
| 1777633512 | 7.22° C | 99% | 1007.8 hPa | 0 mm | - | 144 W/m² | - |
| 1777633210 | 6.67° C | 99% | 1007.8 hPa | 0 mm | - | 127 W/m² | - |
| 1777632603 | 5° C | 99% | 1007.8 hPa | 0 mm | - | 73 W/m² | - |
| 1777631996 | 6.11° C | 99% | 1007.7 hPa | 0 mm | - | 47 W/m² | - |
| 1777631695 | 5° C | 99% | 1007.8 hPa | 0 mm | - | 42 W/m² | - |
| 1777631392 | 4.44° C | 99% | 1007.7 hPa | 0 mm | - | 38 W/m² | - |
| 1777631089 | 3.33° C | 99% | 1007.6 hPa | 0 mm | - | 34 W/m² | - |
| 1777630785 | 3.33° C | 99% | 1007.5 hPa | 0 mm | - | 28 W/m² | - |
| 1777630482 | 3.33° C | 99% | 1007.6 hPa | 0 mm | - | 26 W/m² | - |
| 1777630179 | 2.78° C | 99% | 1007.4 hPa | 0 mm | - | 23 W/m² | - |
* Rain latest hour (hover to see other rain measurements)
** Current wind speed in m/s (hover to see current wind gust speed)